KLM33T EGBB-EHAM

Flight info

Callsign KLM33T
Flight time 0h 54m
Altitude 35000
Route DTY2Y DTY P166 BANTO P155 SIVDA P137 REDFA REDFA1A
Aircraft E75L/M-VGDW/C

Departure

Time 2026-04-28 12:30
Airport Birmingham Airport (EGBB)

Arrival

Time 2026-04-28 13:24
Airport Amsterdam Airport Schiphol (EHAM)
Time Latitude Longitude Altitude Speed Heading
2026-04-28 11:55 52.45308 -1.73733 328 ft 0 kts 146°
2026-04-28 12:20 52.45325 -1.73751 327 ft 3 kts 148°
2026-04-28 12:20 52.45345 -1.73771 327 ft 3 kts 152°
2026-04-28 12:21 52.45366 -1.73786 326 ft 3 kts 162°
2026-04-28 12:21 52.45387 -1.73789 326 ft 3 kts 201°
2026-04-28 12:21 52.45395 -1.73780 326 ft 1 kts 236°
2026-04-28 12:23 52.45390 -1.73792 324 ft 3 kts 236°
2026-04-28 12:23 52.45371 -1.73838 327 ft 7 kts 235°
2026-04-28 12:24 52.45338 -1.73916 327 ft 10 kts 235°
2026-04-28 12:24 52.45312 -1.74034 325 ft 12 kts 290°
2026-04-28 12:24 52.45355 -1.74178 326 ft 16 kts 296°
2026-04-28 12:24 52.45409 -1.74354 325 ft 19 kts 297°
2026-04-28 12:25 52.45476 -1.74566 324 ft 21 kts 307°
2026-04-28 12:25 52.45600 -1.74710 323 ft 23 kts 326°
2026-04-28 12:25 52.45740 -1.74867 321 ft 26 kts 326°
2026-04-28 12:25 52.45894 -1.75040 320 ft 28 kts 325°
2026-04-28 12:26 52.46062 -1.75225 317 ft 30 kts 326°
2026-04-28 12:26 52.46240 -1.75421 315 ft 32 kts 325°
2026-04-28 12:26 52.46426 -1.75628 314 ft 33 kts 324°
2026-04-28 12:26 52.46613 -1.75840 311 ft 27 kts 319°
2026-04-28 12:27 52.46633 -1.75916 311 ft 3 kts 238°
2026-04-28 12:27 52.46616 -1.75957 311 ft 0 kts 235°
2026-04-28 12:28 52.46614 -1.75963 310 ft 2 kts 235°
2026-04-28 12:28 52.46600 -1.75996 311 ft 5 kts 236°
2026-04-28 12:28 52.46576 -1.76052 313 ft 7 kts 236°
2026-04-28 12:29 52.46520 -1.76062 314 ft 4 kts 148°
2026-04-28 12:29 52.46416 -1.75948 315 ft 50 kts 145°
2026-04-28 12:29 52.45878 -1.75350 319 ft 136 kts 146°
2026-04-28 12:30 52.44923 -1.74332 777 ft 181 kts 144°
2026-04-28 12:30 52.43840 -1.73190 1759 ft 190 kts 140°
2026-04-28 12:30 52.42687 -1.72038 2570 ft 201 kts 141°
2026-04-28 12:30 52.41502 -1.70746 3394 ft 209 kts 142°
2026-04-28 12:31 52.40149 -1.69754 4376 ft 216 kts 155°
2026-04-28 12:31 52.38690 -1.69152 5506 ft 217 kts 161°
2026-04-28 12:31 52.37190 -1.68528 5871 ft 221 kts 152°
2026-04-28 12:31 52.35886 -1.67390 6228 ft 212 kts 135°
2026-04-28 12:32 52.34940 -1.65465 6802 ft 225 kts 115°
2026-04-28 12:32 52.34285 -1.63019 7356 ft 237 kts 110°
2026-04-28 12:32 52.33956 -1.60376 8202 ft 240 kts 90°
2026-04-28 12:32 52.33937 -1.57615 9083 ft 245 kts 89°
2026-04-28 12:33 52.33941 -1.54799 9980 ft 250 kts 88°
2026-04-28 12:33 52.33957 -1.51921 10752 ft 260 kts 87°
2026-04-28 12:33 52.33988 -1.48847 11127 ft 281 kts 86°
2026-04-28 12:33 52.34035 -1.45579 11610 ft 293 kts 87°
2026-04-28 12:34 52.34082 -1.42182 11668 ft 301 kts 87°
2026-04-28 12:34 52.34136 -1.38762 11699 ft 302 kts 87°
2026-04-28 12:34 52.34180 -1.35345 12516 ft 300 kts 87°
2026-04-28 12:34 52.34204 -1.31911 13429 ft 305 kts 87°
2026-04-28 12:35 52.34228 -1.28409 14332 ft 311 kts 86°
2026-04-28 12:35 52.34257 -1.24889 15192 ft 315 kts 86°
2026-04-28 12:35 52.34287 -1.21284 16106 ft 319 kts 86°
2026-04-28 12:35 52.34319 -1.17637 16991 ft 323 kts 86°
2026-04-28 12:36 52.34354 -1.13937 17867 ft 327 kts 86°
2026-04-28 12:36 52.34390 -1.10185 18723 ft 332 kts 86°
2026-04-28 12:36 52.34426 -1.06401 19513 ft 333 kts 86°
2026-04-28 12:36 52.34461 -1.02597 20331 ft 335 kts 85°
2026-04-28 12:37 52.34499 -0.98782 21083 ft 338 kts 86°
2026-04-28 12:37 52.34540 -0.94935 21838 ft 338 kts 85°
2026-04-28 12:37 52.34580 -0.91080 22556 ft 340 kts 85°
2026-04-28 12:37 52.34622 -0.87203 23260 ft 342 kts 85°
2026-04-28 12:38 52.34663 -0.83346 23961 ft 345 kts 85°
2026-04-28 12:38 52.34704 -0.79409 24606 ft 347 kts 85°
2026-04-28 12:38 52.34743 -0.75453 25287 ft 348 kts 85°
2026-04-28 12:38 52.34782 -0.71493 25955 ft 348 kts 85°
2026-04-28 12:39 52.34820 -0.67568 26812 ft 343 kts 85°
2026-04-28 12:39 52.34853 -0.63705 27689 ft 337 kts 85°
2026-04-28 12:39 52.34888 -0.59898 28515 ft 333 kts 84°
2026-04-28 12:39 52.34924 -0.56138 29354 ft 328 kts 84°
2026-04-28 12:40 52.34960 -0.52418 30193 ft 324 kts 84°
2026-04-28 12:40 52.34997 -0.48746 30810 ft 323 kts 84°
2026-04-28 12:40 52.35038 -0.45092 31222 ft 326 kts 84°
2026-04-28 12:40 52.35081 -0.41361 31603 ft 330 kts 84°
2026-04-28 12:41 52.35124 -0.37576 31993 ft 334 kts 84°
2026-04-28 12:41 52.35165 -0.33771 32416 ft 336 kts 84°
2026-04-28 12:41 52.35205 -0.29943 32833 ft 338 kts 85°
2026-04-28 12:41 52.35246 -0.26094 33233 ft 340 kts 85°
2026-04-28 12:42 52.35286 -0.22222 33627 ft 342 kts 85°
2026-04-28 12:42 52.35326 -0.18329 34006 ft 343 kts 85°
2026-04-28 12:42 52.35366 -0.14406 34374 ft 345 kts 85°
2026-04-28 12:42 52.35405 -0.10465 34659 ft 347 kts 85°
2026-04-28 12:43 52.35444 -0.06505 34939 ft 349 kts 85°
2026-04-28 12:43 52.35483 -0.02517 35215 ft 351 kts 85°
2026-04-28 12:43 52.35520 0.01516 35271 ft 360 kts 87°
2026-04-28 12:43 52.35245 0.05667 35278 ft 373 kts 94°
2026-04-28 12:44 52.34899 0.09934 35306 ft 382 kts 94°
2026-04-28 12:44 52.34181 0.18557 35333 ft 385 kts 94°
2026-04-28 12:45 52.33412 0.27353 35374 ft 393 kts 94°
2026-04-28 12:45 52.32639 0.36221 35321 ft 394 kts 94°
2026-04-28 12:46 52.31848 0.45059 35335 ft 393 kts 94°
2026-04-28 12:46 52.31041 0.53932 35332 ft 397 kts 95°
2026-04-28 12:47 52.30219 0.62863 35332 ft 397 kts 95°
2026-04-28 12:47 52.29391 0.71788 35339 ft 397 kts 95°
2026-04-28 12:48 52.28558 0.80699 35337 ft 397 kts 95°
2026-04-28 12:48 52.27721 0.89584 35318 ft 402 kts 96°
2026-04-28 12:49 52.26854 0.98661 34872 ft 407 kts 96°
2026-04-28 12:49 52.26416 1.03210 34355 ft 404 kts 97°
2026-04-28 12:49 52.25982 1.07708 33770 ft 399 kts 96°
2026-04-28 12:49 52.25550 1.12165 33209 ft 396 kts 96°
2026-04-28 12:50 52.25095 1.16598 32712 ft 394 kts 97°
2026-04-28 12:50 52.24647 1.21014 32240 ft 395 kts 96°
2026-04-28 12:50 52.24215 1.25429 31662 ft 395 kts 96°
2026-04-28 12:50 52.23782 1.29858 31304 ft 386 kts 96°
2026-04-28 12:51 52.23364 1.34060 31284 ft 368 kts 96°
2026-04-28 12:51 52.22964 1.38101 31324 ft 357 kts 96°
2026-04-28 12:51 52.22570 1.42113 31338 ft 359 kts 96°
2026-04-28 12:52 52.21772 1.50164 31341 ft 364 kts 96°
2026-04-28 12:52 52.20950 1.58365 31317 ft 366 kts 97°
2026-04-28 12:53 52.20129 1.66491 31328 ft 365 kts 97°
2026-04-28 12:53 52.19299 1.74677 31327 ft 365 kts 97°
2026-04-28 12:54 52.18463 1.82861 31281 ft 365 kts 97°
2026-04-28 12:54 52.18043 1.86963 30809 ft 371 kts 96°
2026-04-28 12:54 52.17642 1.91161 29617 ft 378 kts 96°
2026-04-28 12:54 52.17238 1.95360 29057 ft 367 kts 96°
2026-04-28 12:55 52.16829 1.99419 28501 ft 362 kts 97°
2026-04-28 12:55 52.16414 2.03436 28064 ft 368 kts 98°
2026-04-28 12:55 52.15982 2.07589 27571 ft 373 kts 98°
2026-04-28 12:55 52.15545 2.11760 27070 ft 375 kts 98°
2026-04-28 12:56 52.15103 2.15960 26582 ft 376 kts 98°
2026-04-28 12:56 52.14665 2.20168 26096 ft 377 kts 98°
2026-04-28 12:56 52.14220 2.24401 25595 ft 378 kts 98°
2026-04-28 12:56 52.13770 2.28618 25105 ft 376 kts 99°
2026-04-28 12:57 52.13322 2.32794 24620 ft 373 kts 99°
2026-04-28 12:57 52.12884 2.36886 24135 ft 370 kts 99°
2026-04-28 12:57 52.12446 2.40987 23631 ft 367 kts 99°
2026-04-28 12:57 52.12018 2.45060 23305 ft 363 kts 97°
2026-04-28 12:58 52.12123 2.49182 22954 ft 371 kts 78°
2026-04-28 12:58 52.13080 2.53078 22661 ft 373 kts 63°
2026-04-28 12:58 52.14378 2.56731 22317 ft 372 kts 62°
2026-04-28 12:58 52.15694 2.60341 22062 ft 370 kts 62°
2026-04-28 12:59 52.17006 2.63937 21772 ft 368 kts 62°
2026-04-28 12:59 52.18314 2.67524 21486 ft 367 kts 62°
2026-04-28 12:59 52.19614 2.71096 21196 ft 366 kts 62°
2026-04-28 12:59 52.20910 2.74664 20909 ft 364 kts 62°
2026-04-28 13:00 52.22197 2.78214 20625 ft 363 kts 62°
2026-04-28 13:00 52.23461 2.81703 20346 ft 360 kts 62°
2026-04-28 13:00 52.24732 2.85228 20061 ft 359 kts 62°
2026-04-28 13:00 52.25990 2.88735 19791 ft 356 kts 62°
2026-04-28 13:01 52.27241 2.92225 19498 ft 356 kts 62°
2026-04-28 13:01 52.28490 2.95719 19251 ft 352 kts 62°
2026-04-28 13:01 52.29702 2.99211 19260 ft 354 kts 63°
2026-04-28 13:01 52.30916 3.02730 19273 ft 357 kts 62°
2026-04-28 13:02 52.32151 3.06257 19290 ft 356 kts 62°
2026-04-28 13:02 52.32976 3.08568 19294 ft 357 kts 61°
2026-04-28 13:02 52.34651 3.13209 19299 ft 357 kts 62°
2026-04-28 13:02 52.35905 3.16743 18742 ft 360 kts 62°
2026-04-28 13:03 52.37134 3.20276 18025 ft 355 kts 62°
2026-04-28 13:03 52.38335 3.23767 17351 ft 348 kts 63°
2026-04-28 13:03 52.39507 3.27206 16722 ft 344 kts 63°
2026-04-28 13:03 52.40299 3.29509 16318 ft 342 kts 63°
2026-04-28 13:04 52.41448 3.32831 15742 ft 338 kts 63°
2026-04-28 13:04 52.42609 3.36173 15182 ft 338 kts 62°
2026-04-28 13:04 52.43773 3.39497 14634 ft 330 kts 62°
2026-04-28 13:04 52.44812 3.42786 14077 ft 319 kts 72°
2026-04-28 13:05 52.45413 3.46236 13518 ft 311 kts 77°
2026-04-28 13:05 52.45902 3.49653 12949 ft 304 kts 78°
2026-04-28 13:05 52.46375 3.53000 12402 ft 295 kts 78°
2026-04-28 13:05 52.46821 3.56181 11873 ft 285 kts 78°
2026-04-28 13:06 52.47268 3.59338 11355 ft 281 kts 78°
2026-04-28 13:06 52.47699 3.62455 10866 ft 279 kts 78°
2026-04-28 13:06 52.48128 3.65543 10380 ft 277 kts 78°
2026-04-28 13:06 52.48560 3.68610 9898 ft 274 kts 78°
2026-04-28 13:07 52.48987 3.71634 9388 ft 271 kts 78°
2026-04-28 13:07 52.49404 3.74642 8881 ft 269 kts 81°
2026-04-28 13:07 52.49261 3.77665 8345 ft 269 kts 108°
2026-04-28 13:07 52.48254 3.80188 7913 ft 270 kts 129°
2026-04-28 13:08 52.46969 3.82418 7460 ft 267 kts 129°
2026-04-28 13:08 52.45694 3.84628 7015 ft 265 kts 129°
2026-04-28 13:08 52.44468 3.86825 6560 ft 263 kts 129°
2026-04-28 13:08 52.43226 3.89024 6080 ft 262 kts 129°
2026-04-28 13:09 52.41989 3.91214 5607 ft 261 kts 129°
2026-04-28 13:09 52.40759 3.93393 5136 ft 261 kts 129°
2026-04-28 13:09 52.39541 3.95493 5149 ft 246 kts 129°
2026-04-28 13:09 52.38339 3.97520 5136 ft 250 kts 130°
2026-04-28 13:10 52.37129 3.99617 5005 ft 257 kts 129°
2026-04-28 13:10 52.35910 4.01738 4729 ft 255 kts 129°
2026-04-28 13:10 52.34703 4.03837 4458 ft 252 kts 129°
2026-04-28 13:10 52.33514 4.05910 4188 ft 248 kts 129°
2026-04-28 13:11 52.32356 4.07944 3931 ft 246 kts 129°
2026-04-28 13:11 52.31185 4.09981 3679 ft 245 kts 129°
2026-04-28 13:11 52.30013 4.11987 3420 ft 243 kts 129°
2026-04-28 13:11 52.28844 4.13991 3163 ft 244 kts 129°
2026-04-28 13:12 52.27772 4.15809 2919 ft 246 kts 129°
2026-04-28 13:12 52.26780 4.17447 2712 ft 249 kts 130°
2026-04-28 13:12 52.25525 4.19492 2498 ft 248 kts 130°
2026-04-28 13:12 52.25144 4.20113 2521 ft 245 kts 130°
2026-04-28 13:13 52.24387 4.21348 2508 ft 246 kts 129°
2026-04-28 13:13 52.23181 4.23344 2503 ft 248 kts 129°
2026-04-28 13:13 52.21882 4.25216 2492 ft 254 kts 144°
2026-04-28 13:14 52.20312 4.26322 2517 ft 258 kts 154°
2026-04-28 13:14 52.18644 4.27412 2490 ft 258 kts 152°
2026-04-28 13:14 52.16950 4.28530 2138 ft 264 kts 153°
2026-04-28 13:14 52.15271 4.29622 2007 ft 252 kts 153°
2026-04-28 13:15 52.13698 4.30649 1978 ft 237 kts 152°
2026-04-28 13:15 52.12207 4.31608 2024 ft 221 kts 152°
2026-04-28 13:15 52.10908 4.32663 2119 ft 198 kts 132°
2026-04-28 13:15 52.10212 4.34391 2080 ft 174 kts 108°
2026-04-28 13:16 52.10050 4.36229 2039 ft 161 kts 72°
2026-04-28 13:16 52.10734 4.37617 2093 ft 165 kts 32°
2026-04-28 13:16 52.11695 4.38623 2114 ft 165 kts 45°
2026-04-28 13:16 52.12415 4.40058 2103 ft 163 kts 58°
2026-04-28 13:17 52.13015 4.41614 2087 ft 163 kts 53°
2026-04-28 13:17 52.13934 4.42665 2097 ft 165 kts 29°
2026-04-28 13:17 52.14967 4.43515 2075 ft 168 kts 31°
2026-04-28 13:17 52.16012 4.44401 2087 ft 168 kts 33°
2026-04-28 13:18 52.17042 4.45320 2111 ft 166 kts 32°
2026-04-28 13:18 52.18063 4.46204 2057 ft 165 kts 33°
2026-04-28 13:18 52.18836 4.47498 2080 ft 159 kts 60°
2026-04-28 13:18 52.19369 4.49098 2106 ft 160 kts 58°
2026-04-28 13:19 52.20007 4.50617 2062 ft 163 kts 56°
2026-04-28 13:19 52.20619 4.52176 2060 ft 162 kts 59°
2026-04-28 13:19 52.21200 4.53732 2047 ft 160 kts 58°
2026-04-28 13:19 52.21808 4.55271 2084 ft 163 kts 58°
2026-04-28 13:20 52.22420 4.56835 2109 ft 164 kts 59°
2026-04-28 13:20 52.23000 4.58365 2066 ft 158 kts 58°
2026-04-28 13:20 52.23572 4.59855 1994 ft 153 kts 58°
2026-04-28 13:20 52.24138 4.61302 1769 ft 145 kts 58°
2026-04-28 13:21 52.24641 4.62612 1558 ft 128 kts 58°
2026-04-28 13:21 52.25091 4.63789 1399 ft 118 kts 56°
2026-04-28 13:21 52.25523 4.64898 1238 ft 116 kts 57°
2026-04-28 13:21 52.25972 4.66064 1077 ft 125 kts 58°
2026-04-28 13:22 52.26420 4.67270 958 ft 122 kts 59°
2026-04-28 13:22 52.26864 4.68445 819 ft 122 kts 58°
2026-04-28 13:22 52.27323 4.69647 705 ft 127 kts 58°
2026-04-28 13:22 52.27797 4.70852 495 ft 125 kts 57°
2026-04-28 13:23 52.28257 4.72028 338 ft 124 kts 57°
2026-04-28 13:23 52.28711 4.73219 111 ft 124 kts 57°
2026-04-28 13:23 52.29155 4.74364 11 ft 112 kts 58°
2026-04-28 13:23 52.29529 4.75336 -4 ft 87 kts 58°
2026-04-28 13:24 52.29780 4.75989 -6 ft 55 kts 58°
2026-04-28 13:24 52.29977 4.76475 -5 ft 41 kts 44°
2026-04-28 13:24 52.30151 4.76647 -3 ft 17 kts 25°
2026-04-28 13:24 52.30196 4.76685 -3 ft 2 kts 28°
2026-04-28 13:25 52.30230 4.76714 -3 ft 9 kts 28°
2026-04-28 13:25 52.30288 4.76772 -3 ft 10 kts 49°
2026-04-28 13:25 52.30329 4.76868 -3 ft 11 kts 58°
2026-04-28 13:25 52.30374 4.76985 -3 ft 13 kts 58°
2026-04-28 13:26 52.30418 4.77061 -3 ft 3 kts
2026-04-28 13:26 52.30434 4.77048 -3 ft 4 kts 328°
2026-04-28 13:26 52.30469 4.77009 -3 ft 9 kts 326°
2026-04-28 13:26 52.30530 4.76944 -3 ft 12 kts 328°
2026-04-28 13:27 52.30613 4.76867 -3 ft 15 kts 346°
2026-04-28 13:27 52.30662 4.76931 -3 ft 4 kts 43°
2026-04-28 13:27 52.30684 4.76938 -3 ft 4 kts
2026-04-28 13:27 52.30712 4.76957 -3 ft 3 kts 32°
2026-04-28 13:28 52.30713 4.76958 -3 ft 0 kts 32°